Location: Mason Neck State Park
(38.6428°N, 77.1981°W)
Time: 21:55:21
(UTC-04:00)

Cosmos 2278 Rocket - Visible Passes

Search period start: 28 May 2016 00:00
Search period end: 07 June 2016 00:00
Orbit: 840 x 847 km, 71.0° (Epoch: 28 May)

Date Brightness Start Highest point End Pass type
(mag) Time Alt. Az. Time Alt. Az. Time Alt. Az.
28 May 4.6 21:27:08 10° WNW 21:30:51 18° W 21:34:33 10° SW visible
29 May 4.6 21:12:29 10° WNW 21:16:21 19° W 21:20:11 10° SW visible
30 May 4.6 20:57:52 10° NW 21:01:51 20° W 21:05:49 10° SW visible
